Regional Weather Roundup
Issued by NWS

Home | Current Version | Previous Version | Graphics & Text | Print | Product List | Glossary On
Versions: 1 2 3 4 5 6 7 8 9 10 11 12 13 14 15 16 17 18 19 20 21 22 23 24 25 26 27 28 29 30 31 32 33 34 35 36 37 38 39 40 41 42 43 44 45 46 47 48 49 50
000
ASUS43 KFSD 041402
RWRSD

WEATHER ROUNDUP FOR SOUTH DAKOTA
NATIONAL WEATHER SERVICE SIOUX FALLS SD
800 AM CST WED MAR 04 2015

NOTE: "FAIR" INDICATES FEW OR NO CLOUDS BELOW 12,000 FEET WITH NO
SIGNIFICANT WEATHER AND/OR OBSTRUCTIONS TO VISIBILITY.


SDZ001>005-009-010-012>017-041500-
NORTHWEST AND NORTH CENTRAL SOUTH DAKOTA

CITY           SKY/WX    TMP DP  RH WIND       PRES   REMARKS
BUFFALO          N/A     -1  -6  79 NW14      30.08R WCI -20
FAITH            N/A      0  -8  69 NW15      30.18R WCI -19
MOBRIDGE       CLEAR      2  -9  60 NW15      30.19R WCI -17
$$

SDZ012>016-024>037-041>051-057-063-072>074-041500-
SOUTHWEST AND SOUTH CENTRAL SOUTH DAKOTA

CITY           SKY/WX    TMP DP  RH WIND       PRES   REMARKS
RAPID CTY ARPT CLEAR      2  -4  76 N10       30.14R WCI -14
PIERRE         CLEAR      5  -4  66 NW17      30.22R WCI -14
CUSTER         CLEAR      1 -10  60 NW9       29.93R WCI -14
ELLSWORTH AFB  CLOUDY     8  -1  65 N13       30.14  WCI  -7
PHILIP         CLOUDY     2  -5  72 NW7       30.23R WCI -11
PINE RIDGE     PTCLDY    -3  -9  75 W6        30.15R WCI -15
SPEARFISH      FAIR       5  -2  72 W15       30.09R WCI -13
WINNER         FAIR       5  -7  57 NW10      30.23R WCI -10
$$

SDZ004>011-016>023-039-040-041500-
NORTHEAST SOUTH DAKOTA

CITY           SKY/WX    TMP DP  RH WIND       PRES   REMARKS
ABERDEEN       CLEAR      2  -5  72 NW18      30.22R WCI -19
WATERTOWN      CLOUDY    -4  -8  83 W5        30.12R WCI -15
SISSETON         N/A      1  -5  75 N13       30.19  WCI -17
$$

SDZ017-020-022-023-036>040-048>070-041500-
SOUTHEAST SOUTH DAKOTA

CITY           SKY/WX    TMP DP  RH WIND       PRES   REMARKS
SIOUX FALLS    PTCLDY     3  -2  79 W5        30.18R WCI  -6
HURON          CLEAR      4  -4  69 NW18      30.22R WCI -16
MITCHELL       CLEAR      6  -2  69 NW15      30.24R WCI -12
YANKTON        CLEAR     10   3  72 SW10      30.23R WCI  -3
$$

ABBREVIATIONS USED IN REMARKS
   TC - TEMPERATURE IN CELSIUS
  WCI - WIND CHILL INDEX
   HX - HEAT INDEX
  VSB - VISIBILITY



USA.gov is the U.S. government's official web portal to all federal, state and local government web resources and services.